* Astronomy

Members Login
Post Info TOPIC: Comet P/2010 N1 (WISE)


L

Posts: 131433
Date:
RE: Comet P/2010 N1 (WISE)
Permalink  
 


Comet P/2010 N1 (WISE) makes its closest approach to the Earth (2.957 AU) on the 8th February 2015

Ephemeris

Date    TT    R. A. (2000) Decl.     Delta      r    Elong.  Phase   Mag
2015 02 11    08 35 45.0 +26 52 39   2.9605  3.9070   161.1     4.7  25.3
2015 02 12    08 34 54.9 +26 56 58   2.9615  3.9033   159.9     5.0  25.3
2015 02 13    08 34 05.2 +27 01 11   2.9627  3.8996   158.8     5.2  25.3
2015 02 14    08 33 16.0 +27 05 19   2.9643  3.8959   157.7     5.5  25.3
2015 02 15    08 32 27.2 +27 09 21   2.9662  3.8922   156.6     5.8  25.3
2015 02 16    08 31 38.9 +27 13 17   2.9683  3.8885   155.4     6.1  25.3
2015 02 17    08 30 51.2 +27 17 07   2.9708  3.8848   154.3     6.3  25.3
2015 02 18    08 30 04.1 +27 20 51   2.9735  3.8810   153.2     6.6  25.3
2015 02 19    08 29 17.6 +27 24 29   2.9766  3.8773   152.0     6.9  25.3
2015 02 20    08 28 31.8 +27 28 00   2.9799  3.8736   150.9     7.1  25.3
2015 02 21    08 27 46.8 +27 31 25   2.9834  3.8698   149.7     7.4  25.3
2015 02 22    08 27 02.5 +27 34 44   2.9873  3.8660   148.6     7.7  25.2
2015 02 23    08 26 19.0 +27 37 57   2.9914  3.8623   147.5     7.9  25.2
2015 02 24    08 25 36.3 +27 41 03   2.9958  3.8585   146.3     8.2  25.2
2015 02 25    08 24 54.5 +27 44 03   3.0004  3.8547   145.2     8.4  25.2
2015 02 26    08 24 13.5 +27 46 56   3.0053  3.8509   144.1     8.7  25.2
2015 02 27    08 23 33.5 +27 49 43   3.0104  3.8471   142.9     8.9  25.2
2015 02 28    08 22 54.5 +27 52 23   3.0158  3.8433   141.8     9.2  25.2


__________________


L

Posts: 131433
Date:
Permalink  
 

Comet P/2010 N1 (WISE) is at Opposition (2.978 AU) on the 28th January 2015 

Ephemeris

Date    TT    R. A. (2000) Decl.     Delta      r    Elong.  Phase   Mag
2015 01 27    08 48 34.6 +25 38 23   2.9835  3.9616   172.4     1.9  25.4
2015 01 28    08 47 43.7 +25 43 47   2.9797  3.9580   172.4     1.9  25.3
2015 01 29    08 46 52.6 +25 49 08   2.9762  3.9544   172.3     1.9  25.3
2015 01 30    08 46 01.3 +25 54 26   2.9731  3.9508   171.9     2.0  25.3
2015 01 31    08 45 09.8 +25 59 40   2.9703  3.9472   171.4     2.1  25.3
2015 02 01    08 44 18.2 +26 04 51   2.9678  3.9436   170.8     2.3  25.3
2015 02 02    08 43 26.5 +26 09 58   2.9657  3.9400   170.1     2.5  25.3
2015 02 03    08 42 34.8 +26 15 01   2.9638  3.9363   169.2     2.7  25.3
2015 02 04    08 41 43.1 +26 20 00   2.9623  3.9327   168.3     2.9  25.3
2015 02 05    08 40 51.5 +26 24 54   2.9611  3.9290   167.4     3.1  25.3
2015 02 06    08 39 59.9 +26 29 44   2.9602  3.9254   166.4     3.4  25.3
2015 02 07    08 39 08.5 +26 34 29   2.9597  3.9217   165.4     3.6  25.3
2015 02 08    08 38 17.3 +26 39 09   2.9594  3.9181   164.3     3.9  25.3
2015 02 09    08 37 26.3 +26 43 44   2.9595  3.9144   163.2     4.2  25.3
2015 02 10    08 36 35.5 +26 48 14   2.9598  3.9107   162.2     4.4  25.3


__________________


L

Posts: 131433
Date:
Permalink  
 

Orbital elements:
P/2010 N1 (WISE)
Epoch 2010 Sept. 1.0 TT = JDT 2455440.5
T 2010 Aug. 16.15323 TT MPC
q 1.4945194 (2000.0) P Q
n 0.17169881 Peri. 153.49663 -0.04713472 +0.97766538
a 3.2059582 Node 113.21000 -0.95146685 +0.01848364
e 0.5338307 Incl. 12.87647 -0.30412030 -0.20935318
P 5.74

MPEC 2010 - N48


Comet P/2010 N1 (WISE) was discovered by the WISE satellite on the 5th July, 2010.
The preliminary orbital elements of the comet indicate a perihelion passage on the 16th August, 2010 at a distance of approximately 1.49 AU from the Sun.


__________________
Page 1 of 1  sorted by
Quick Reply

Please log in to post quick replies.



Create your own FREE Forum
Report Abuse
Powered by ActiveBoard